St. Johnsbury, VT

12:33 PM EDT on April 26, 2017 (GMT -0400)
St. Johnsbury

Weather History for K1V4 - December, 2012

Change the Weather History Date:

Saturday, December 1, 2012

  Actual Average Record
Temperature  
Mean Temperature 17 °F 29 °F  
Max Temperature 26 °F 37 °F 63 °F (1934)
Min Temperature 7 °F 22 °F -10 °F (1958)
Degree Days  
Heating Degree Days 48 36  
Month to date heating degree days 48 36  
Since 1 July heating degree days 1727 1692  
Cooling Degree Days 0 0  
Month to date cooling degree days 0  
Year to date cooling degree days 433  
Moisture  
Dew Point 14 °F    
Average Humidity 84    
Maximum Humidity 92    
Minimum Humidity 76    
Precipitation  
Precipitation 0.04 in 0.11 in 1.65 in (2006)
Month to date precipitation 0.04 0.11  
Year to date precipitation 30.77 36.53  
Sea Level Pressure  
Sea Level Pressure 30.59 in    
Wind  
Wind Speed - (North)    
Max Wind Speed -    
Max Gust Speed -    
T = Trace of Precipitation, MM = Missing Value Source: NWS Daily Summary

Daily Weather History Graph

Daily Weather History Graph

Search for Another Location

Airport or City:

Trip Planner

Search our weather history database for the weather conditions in past years. The results will help you decide how hot, cold, wet, or windy it might be!

Date:

Astronomy

Dec. 01, 2012 Rise Set
Actual Time 7:04 AM EST 4:09 PM EST
Civil Twilight 6:31 AM EST 4:42 PM EST
Nautical Twilight 5:55 AM EST 5:18 PM EST
Astronomical Twilight 5:20 AM EST 5:53 PM EST
Moon 6:58 PM EST (12/1) 9:14 AM EST (12/1)
Length of Visible Light 10h 10m
Length of Day
9h 05m
Waning Gibbous, 92% of the Moon is Illuminated
Dec 1
Waning Gibbous
Dec 6
Last Quarter
Dec 13
New
Dec 20
First Quarter
Dec 28
Full

Hourly Weather History & Observations

Time (EST) Temp. Dew Point Humidity Pressure Visibility Wind Dir Wind Speed Gust Speed Precip Events Conditions
12:54 AM 8.1 °F 3.0 °F 80% 30.62 in - North - - N/A   Unknown
1:54 AM 9.0 °F 3.9 °F 80% 30.62 in - North - - N/A   Unknown
2:54 AM 9.0 °F 3.9 °F 80% 30.63 in - North - - N/A   Unknown
3:54 AM 9.0 °F 3.9 °F 80% 30.62 in - North - - N/A   Unknown
4:54 AM 10.9 °F 6.1 °F 81% 30.63 in - North - - N/A   Unknown
5:54 AM 10.9 °F 6.1 °F 81% 30.64 in - North - - N/A   Unknown
6:54 AM 12.0 °F 7.0 °F 80% 30.64 in - North - - N/A   Unknown
7:54 AM 14.0 °F 9.0 °F 80% 30.65 in - North - - N/A   Unknown
8:54 AM 14.0 °F 10.0 °F 84% 30.66 in - North - - 0.01 in   Unknown
9:54 AM 17.1 °F 12.0 °F 81% 30.67 in - North - - 0.01 in   Unknown
10:54 AM 19.0 °F 15.1 °F 85% 30.63 in - North - - 0.01 in   Unknown
11:54 AM 19.9 °F 16.0 °F 85% 30.61 in - North - - 0.01 in   Unknown
12:54 PM 21.9 °F 17.1 °F 82% 30.58 in - North - - N/A   Unknown
1:54 PM 21.9 °F 18.0 °F 85% 30.57 in - North - - N/A   Unknown
2:54 PM 21.9 °F 18.0 °F 85% 30.57 in - North - - N/A   Unknown
3:54 PM 23.0 °F 18.0 °F 81% 30.58 in - North - - N/A   Unknown
4:54 PM 21.9 °F 19.0 °F 89% 30.57 in - North - - N/A   Unknown
5:54 PM 23.0 °F 19.0 °F 85% 30.55 in - North - - N/A   Unknown
6:54 PM 23.0 °F 19.9 °F 88% 30.55 in - North - - N/A   Unknown
7:54 PM 24.1 °F 19.9 °F 84% 30.55 in - North - - N/A   Unknown
8:54 PM 24.1 °F 21.0 °F 88% 30.52 in - North - - N/A   Unknown
9:54 PM 25.0 °F 21.0 °F 85% 30.49 in - North - - N/A   Unknown
10:54 PM 26.1 °F 21.9 °F 84% 30.49 in - North - - N/A   Unknown
11:54 PM 26.1 °F 23.0 °F 88% 30.48 in - North - - N/A   Unknown